www.pogodaiklimat.ru

Погода и климат >> Архив погоды >> Россия >> Хабаровский край >> Николаевск-на-Амуре


АРХИВ ПОГОДЫ в Николаевск-на-Амуре

Время (UTC), дата Ветер
(напр.,м/с)
 
Видим.   Явления Облачность Т
(С)
Тd
(С)
f
(%)
Тe
(С)
Тes
(С)
Комфортность P
(гПа)
Po
(гПа)
Тmin
(С)
Tmax
(С)
R
(мм)
R24
(мм)
S
(см)
03 14.09 З 2 4000 м слаб. ливневой дождь 10/10 300 м
[Cb cap]
+16.0 +14.3 90 +16 +16 тепло 995.5 990.1
06 14.09 СЗ 4
{17}
50 км в посл. час ливневой дождь 8/6 600 м
[Cb cap Ac As Ci sp]
+15.0 +9.8 71 +14 +15 по сезону 997.9 992.5
09 14.09 СЗ 5
{11}
50 км 8/6 1000 м
[Cb cap Ac As Ci sp]
+11.3 +4.6 63 +9 +9 по сезону 1001.1 995.6 +18.9 6
12 14.09 СЗ 5 20 км ясно +8.5 +2.7 67 +5 +5 по сезону 1003.7 998.1
15 14.09 З 5
{12}
20 км ясно +9.2 +0.6 55 +6 +6 по сезону 1005.1 999.6
18 14.09 СЗ 3 20 км ясно +5.4 +2.0 79 +2 +2 прохладно 1006.1 1000.5
21 14.09 СЗ 3 50 км 3/0
[Ci fib]
+5.9 +2.5 79 +3 +3 прохладно 1007.6 1002.0 +3.3
00 15.09 З 4 50 км ясно +13.1 +2.0 47 +12 +15 по сезону 1008.4 1002.9
03 15.09 З 4 50 км ясно +16.5 +1.6 37 +16 +22 тепло 1007.7 1002.3
06 15.09 З 3 50 км 5/0
[Ci]
+18.4 -0.1 29 +19 +21 тепло 1007.0 1001.6
09 15.09 штиль 0 50 км 6/6 600 м
[Sc]
+11.5 +7.0 74 +11 +11 по сезону 1007.3 1001.7 +18.6
12 15.09 СВ 2 20 км 6/0
[Ci sp]
+8.4 +6.0 85 +7 +7 по сезону 1006.6 1001.1
15 15.09 штиль 0 20 км 3/0
[Ci sp]
+7.4 +5.7 89 +6 +6 по сезону 1006.3 1000.7
18 15.09 СВ 2 20 км 4/0
[Ci sp]
+6.7 +5.7 93 +4 +4 по сезону 1005.3 999.7
21 15.09 В 3 50 км 3/0
[Ci fib]
+15.4 +9.9 70 +15 +15 тепло 1004.8 999.4 +6.0
00 16.09 В 3 50 км 10/10 600 м
[Sc]
+16.9 +12.8 77 +17 +17 тепло 1003.6 998.2
03 16.09 З 5
{10}
50 км 10/10 600 м
[Cb cap]
+15.7 +10.1 69 +15 +15 тепло 1003.3 997.9
06 16.09 В 1 50 км в посл. час ливневой дождь 9/8 600 м
[Cb cap Ac trans]
+13.2 +11.4 89 +13 +14 по сезону 1003.9 998.4
09 16.09 СВ 1 50 км 4/4 600 м
[Sc diur, vesp]
+10.5 +9.6 94 +10 +10 по сезону 1005.4 999.8 +19.0 5
12 16.09 С 2 20 км зарница 3/0
[Cc]
+7.7 +7.2 97 +5 +5 по сезону 1006.7 1001.1
15 16.09 С 2 20 км зарница 6/6 600 м
[Sc]
+7.8 +7.3 97 +6 +6 по сезону 1008.1 1002.5
18 16.09 С 1 20 км 9/9 600 м
[Sc]
+7.6 +6.1 90 +7 +7 по сезону 1009.0 1003.4
21 16.09 С 2 50 км 3/3 300 м
[Sc]
+4.4 +3.8 96 +1 +2 холодно 1010.7 1005.0 +3.9
00 17.09 ЮЗ 1 50 км 3/3 600 м
[Cu med, cong]
+10.8 +5.0 67 +11 +15 по сезону 1010.8 1005.2
03 17.09 З 3 50 км 4/4 600 м
[Cu med, cong]
+13.0 +1.8 46 +12 +16 по сезону 1010.6 1005.1
06 17.09 З 4 50 км 3/3 600 м
[Sc]
+13.3 -1.4 36 +12 +14 по сезону 1010.4 1004.9
09 17.09 СВ 1 50 км ясно +7.4 +3.3 75 +7 +7 прохладно 1011.3 1005.6 +13.7
12 17.09 штиль 0 20 км ясно +3.3 +2.0 91 +2 +2 прохладно 1011.6 1005.9
15 17.09 СВ 1 20 км ясно +1.5 +0.7 94 -0 -0 холодно 1011.3 1005.5
18 17.09 СВ 1 20 км ясно +1.9 +1.3 96 0 0 прохладно 1010.8 1005.0
21 17.09 СВ 2 50 км 4/0
[Ci fib]
+4.2 +3.7 97 +1 +1 холодно 1010.0 1004.4 +1.2
00 18.09 ЮВ 4 50 км 6/0
[Ci fib]
+12.7 +7.7 72 +11 +14 по сезону 1009.4 1003.9
03 18.09 ЮВ 7-12
{13}
50 км 8/3 600 м
[Sc Ac As Ci sp]
+14.7 +8.5 66 +13 +14 по сезону 1007.6 1002.2
06 18.09 ЮВ 7-11
{13}
50 км 10/10 600 м
[Sc]
+15.1 +2.5 43 +13 +13 по сезону 1006.9 1001.4
09 18.09 В 3
{12}
50 км 10/10 600 м
[Sc]
+12.8 +5.8 62 +12 +12 тепло 1007.1 1001.6 +15.5
12 18.09 В 4
{10}
20 км 10/10 600 м
[Sc]
+9.9 +4.0 67 +7 +7 по сезону 1008.3 1002.8
15 18.09 В 5 20 км 10/10 600 м
[Sc]
+8.6 +3.7 71 +5 +5 по сезону 1007.4 1001.8
18 18.09 В 5 20 км 10/10 600 м
[]
+8.0 +4.6 79 +4 +4 по сезону 1006.6 1001.0
21 18.09 СВ 4 50 км 10/10 600 м
[Sc]
+8.5 +3.8 72 +6 +6 по сезону 1006.8 1001.2 +7.8
00 19.09 СВ 4 50 км 10/10 600 м
[Cb cap]
+10.4 +5.1 70 +8 +8 по сезону 1005.9 1000.3
03 19.09 СВ 4 4000 м слаб. дождь 10/10 600 м
[Sc]
+9.5 +7.9 90 +7 +7 прохладно 1005.2 999.6
06 19.09 СВ 4
{11}
2000 м дождь 10/10 600 м
[Sc]
+9.9 +8.5 91 +7 +7 холодно 1004.6 999.0
09 19.09 СВ 6-12
{12}
4000 м слаб. дождь 10/10 600 м
[Sc]
+9.4 +7.5 88 +6 +6 прохладно 1005.4 999.8 +10.6 3
12 19.09 СВ 6-11
{12}
4000 м дождь 10/10 600 м
[Sc]
+9.9 +7.4 84 +6 +6 по сезону 1006.5 1001.0
15 19.09 СВ 4
{11}
10 км слаб. дождь 10/10 600 м
[Sc]
+9.5 +8.4 93 +7 +7 по сезону 1007.4 1001.8
18 19.09 СВ 3 4000 м дождь 10/10 600 м
[Sc]
+9.5 +8.2 92 +7 +7 по сезону 1008.7 1003.1
21 19.09 СВ 1 50 км {дождь} 10/10 600 м
[Cb cap]
+9.0 +7.9 93 +8 +8 по сезону 1011.0 1005.4 +8.9 5
00 20.09 СЗ 2 50 км {дождь} 10/10 600 м
[Cb cap]
+10.6 +8.1 85 +9 +9 по сезону 1012.9 1007.4
03 20.09 СВ 3 50 км 10/10 600 м
[Cb cap]
+12.0 +6.5 69 +11 +11 по сезону 1014.1 1008.6
06 20.09 С 1 50 км 10/10 600 м
[Cb cap]
+11.9 +7.0 72 +12 +12 по сезону 1015.6 1010.1
09 20.09 С 2 50 км в посл. час ливневой дождь 10/10 600 м
[Cb cap]
+8.8 +7.9 94 +7 +7 по сезону 1017.5 1011.9 +12.6 0.4
12 20.09 СЗ 1 20 км {ливн. осадки} 10/10 600 м
[Cb cap]
+8.3 +7.7 96 +7 +7 по сезону 1018.6 1012.9
15 20.09 С 1 200 м туман ?/? +4.6 +4.2 97 +3 +3 по сезону 1019.0 1013.3
18 20.09 СВ 2 500 м туман ?/? +5.2 +4.8 97 +2 +2 по сезону 1018.8 1013.1

 

Местоположение метеостанции Николаевск-на-Амуре (Хабаровский край, Россия): широта 53.15 долгота 140.70 высота над уровнем моря 46 м.

В архиве по умолчанию представлена погода в Николаевск-на-Амуре за последнюю неделю. Архивные данные за месяц целиком и за предыдущие месяцы, начиная с января 2011 года, Вы можете получить, выбрав интересующий диапазон дат из раскрывающегося списка и нажав кнопку "Ввод!".


*Определитесь, кто Вы:
робот инопланетянин человек

Внимание! Время в таблицах - всемирное. Для получения местного времени необходимо прибавить поправку, которая равна 10 ч.

Смотрите также архив погоды в соседних городах и на ближайших метеорологических станциях:

Погода в Байдукове (Хабаровский край, Россия) (50 км)
Погода в Джаоре (Хабаровский край, Россия) (63 км)
Погода в Богородском (Хабаровский край, Россия) (88 км)
Погода в Литке (Хабаровский край, Россия) (93 км)
Погода в Погибях (Сахалинская область, Россия) (120 км)
Погода в Москальво (Сахалинская область, Россия) (128 км)
Погода в Удинске (Хабаровский край, Россия) (130 км)
Погода в Оха (Сахалинская область, Россия) (151 км)
Погода в Мариинском (Хабаровский край, Россия) (163 км)
Погода в Одопту (Сахалинская область, Россия) (169 км)

Пояснения к столбцам:

Ветер - указаны скорость ветра в м/с - средняя за 10 мин, порывы в срок и между сроками (в фигурных скобках) и направление, откуда дует ветер: С - северный, СВ - северо-восточный, В - восточный, ЮВ - юго-восточный, Ю - южный, ЮЗ - юго-западный, З - западный, СЗ - северо-западный.
Видимость - горизонтальная дальность видимости в метрах или километрах. При видимости от 1 до 10 км при отсутствии осадков обычно наблюдается дымка, при ухудшении видимости до 1 км и менее - туман. В сухую погоду видимость может ухудшаться дымом, пылью или мглою.
Явления - указаны атмосферные явления, наблюдавшиеся в срок или в последний час перед сроком; фигурными скобками обозначены явления, наблюдавшиеся между сроками (за 1-3 часа до срока); квадратными скобками обозначены град или гололедные отложения с указанием их диаметра в мм.
Облачность - указаны через наклонную черту общая и нижняя облачность в баллах и высота нижней границы облаков в метрах; квадратными скобками обозначены формы облаков: Ci - перистые, Cs - перисто-слоистые, Cc - перисто-кучевые, Ac - высококучевые, As - высокослоистые, Sc - слоисто-кучевые, Ns - слоисто-дождевые, Cu - кучевые, Cb - кучево-дождевые. Подробнее классификацию облаков см. в Атласе облаков (PDF).
T - Температура воздуха - температура, измеренная на высоте 2 м над землей.
Td - Температура точки росы - температура, при понижении до которой содержащийся в воздухе водяной пар достигнет насыщения.
f - Относительная влажность воздуха - влажноcть воздуха, измеренная на высоте 2 м над землей.
Te - Эффективная температура - температура, которую ощущает одетый по сезону человек в тени. Характеристика душности погоды. При расчете учитывается влияние влажности воздуха и скорости ветра на теплоощущения человека.
Tes - Эффективная температура на солнце - температура, которую ощущает человек, с поправкой на солнечный нагрев. Характеристика знойности погоды. Зависит от высоты солнца над горизонтом, облачности и скорости ветра. Ночью, в пасмурную погоду, а также при ветре 12 м/с и более поправка равна нулю.
P - Атмосферное давление - приведенное к уровню моря атмосферное давление.
Po - Атмосферное давление - измеренное на уровне метеостанции атмосферное давление.
Tmin - Минимальная температура - минимум температуры воздуха на высоте 2 м над землей.
Tmax - Максимальная температура - максимум температуры воздуха на высоте 2 м над землей.
R - Количество осадков - Количество выпавших осадков за период времени, мм. При наведении курсора мыши на число - период времени, за который выпало указанное количество осадков.
R24 - Количество осадков - Количество выпавших осадков за 24 часа, мм.
S - Снежный покров - Высота снежного покрова, см. При наведении курсора мыши на число - состояние снежного покрова и степень покрытия местности в баллах.